Wormley Airport

Jump to: basic info | weather | runways | comments

Related pages: nearby airports | nearby navaids | notams | map

Basic information (top)

Codes: 85LL
Location: lon 41.683899, lat -88.262299, elev 680 ft / 207 m msl
Status: small_airport

Weather (top)

Current conditions for Lewis University Airport 9nm (16km) ESE (rec'd 2015/04/01 05:15Z):

KLOT 010515Z AUTO 18008KT 10SM CLR 05/01 A2998

Airport forecast for Dupage Airport 13nm (25km) N (rec'd 2015/03/31 00:33Z):

TAF KDPA 312330Z 0100/0124 31007KT P6SM SKC 
     FM010200 VRB03KT P6SM SKC 
     FM011200 11008KT P6SM FEW100 
     FM011700 14010G17KT P6SM FEW250 
     FM012000 17015G21KT P6SM FEW250

Runways (top)

N/S: 2,300 x 100 ft (701 x 30 m) — grass — not lighted

Latest comments (top)

No comments yet for Wormley Airport

More... (top)

See also NOTAMs and nearby airports and navaids, or visit the Wormley Airport page at the main OurAirports website..